Weather History for KPNC - March, 2013

Change the Weather History Date:

Wednesday, March 6, 2013

  Actual Average Record
Temperature  
Mean Temperature 34 °F -  
Max Temperature 48 °F 62 °F 84 °F (1956)
Min Temperature 21 °F 35 °F 13 °F (1960)
Degree Days  
Heating Degree Days 30    
Moisture  
Dew Point 19 °F    
Average Humidity 52    
Maximum Humidity 85    
Minimum Humidity 28    
Precipitation  
Precipitation 0.00 in - - ()
Sea Level Pressure  
Sea Level Pressure 30.35 in    
Wind  
Wind Speed 4 mph (ESE)    
Max Wind Speed 13 mph    
Max Gust Speed 16 mph    
Visibility 10 miles    
Events      
Averages and records for this station are not official NWS values.
T = Trace of Precipitation, MM = Missing Value Source: NWS Daily Summary

Daily Weather History Graph

Daily Weather History Graph

Search for Another Location

Airport or City:

Trip Planner

Search our weather history database for the weather conditions in past years. The results will help you decide how hot, cold, wet, or windy it might be!

Date:

Astronomy

Mar. 06, 2013 Rise Set
Actual Time 6:51 AM CST 6:27 PM CST
Civil Twilight 6:25 AM CST 6:53 PM CST
Nautical Twilight 5:56 AM CST 7:23 PM CST
Astronomical Twilight 5:26 AM CST 7:53 PM CST
Moon 2:55 AM CST (3/6) 1:17 PM CST (3/6)
Length of Visible Light 12h 27m
Length of Day
11h 36m
Waning Crescent, 29% of the Moon is Illuminated
Mar 6
Waning Crescent
Mar 11
New
Mar 19
First Quarter
Mar 27
Full
Apr 2
Last Quarter

Hourly Weather History & Observations

Time (CST) Temp. Windchill Dew Point Humidity Pressure Visibility Wind Dir Wind Speed Gust Speed Precip Events Conditions
12:53 AM 27.0 °F 21.6 °F 19.9 °F 75% 30.42 in 10.0 mi NNE 4.6 mph - N/A   Clear
1:53 AM 26.1 °F - 19.9 °F 78% 30.44 in 10.0 mi Calm Calm - N/A   Clear
2:53 AM 25.0 °F - 19.0 °F 78% 30.43 in 10.0 mi Calm Calm - N/A   Clear
3:53 AM 24.1 °F - 19.0 °F 81% 30.43 in 10.0 mi Calm Calm - N/A   Clear
4:53 AM 21.0 °F 16.2 °F 17.1 °F 85% 30.43 in 10.0 mi NE 3.5 mph - N/A   Clear
5:53 AM 26.1 °F 18.4 °F 18.0 °F 71% 30.42 in 10.0 mi ENE 6.9 mph - N/A   Clear
6:53 AM 26.1 °F 20.5 °F 17.1 °F 69% 30.44 in 10.0 mi ENE 4.6 mph - N/A   Clear
7:53 AM 28.0 °F - 19.9 °F 72% 30.45 in 10.0 mi Calm Calm - N/A   Clear
8:53 AM 30.9 °F 23.5 °F 18.0 °F 59% 30.48 in 10.0 mi East 8.1 mph - N/A   Clear
9:53 AM 34.0 °F 28.8 °F 19.0 °F 54% 30.47 in 10.0 mi Variable 5.8 mph - N/A   Clear
10:53 AM 37.0 °F 34.5 °F 19.0 °F 48% 30.45 in 10.0 mi Variable 3.5 mph - N/A   Clear
11:53 AM 39.9 °F 36.7 °F 19.0 °F 43% 30.43 in 10.0 mi Variable 4.6 mph - N/A   Clear
12:53 PM 45.0 °F - 18.0 °F 34% 30.39 in 10.0 mi Calm Calm - N/A   Clear
1:53 PM 46.9 °F - 18.0 °F 32% 30.35 in 10.0 mi Calm Calm - N/A   Clear
2:53 PM 48.9 °F - 18.0 °F 29% 30.32 in 10.0 mi Variable 3.5 mph - N/A   Clear
3:53 PM 48.9 °F - 19.0 °F 31% 30.29 in 10.0 mi SSE 6.9 mph - N/A   Clear
4:53 PM 48.9 °F - 17.1 °F 28% 30.27 in 10.0 mi SE 9.2 mph 16.1 mph N/A   Clear
5:53 PM 48.0 °F - 17.1 °F 29% 30.24 in 10.0 mi ESE 10.4 mph - N/A   Clear
6:53 PM 45.0 °F 41.2 °F 18.0 °F 34% 30.23 in 10.0 mi ESE 6.9 mph - N/A   Clear
7:53 PM 45.0 °F 40.6 °F 19.9 °F 37% 30.23 in 10.0 mi ESE 8.1 mph - N/A   Scattered Clouds
8:53 PM 44.1 °F 37.7 °F 19.9 °F 38% 30.22 in 10.0 mi SE 12.7 mph - N/A   Clear
9:53 PM 42.1 °F 35.7 °F 21.0 °F 43% 30.21 in 10.0 mi ESE 11.5 mph - N/A   Clear
10:53 PM 41.0 °F 35.2 °F 21.0 °F 45% 30.21 in 10.0 mi SE 9.2 mph - N/A   Clear
11:53 PM 39.0 °F 33.4 °F 21.9 °F 50% 30.22 in 10.0 mi SE 8.1 mph - N/A   Clear